Location: *
(48.8780°N, 19.2358°E)
Time: 20:37:55
(UTC+00:00)

STARLINK-49 - Pass Details

Date: 18 October 2019
Orbit: 548 x 551 km, 53.0° (Epoch: 14 November)

Event Time Altitude Azimuth Distance (km) Brightness Sun altitude
Rises 16:32:21 0° 253° (WSW) 2,711 9.2 -7.9°
Reaches altitude 10° 16:34:35 10° 255° (WSW) 1,820 7.9 -8.3°
Maximum altitude 16:38:42 70° 339° (NNW) 586 3.8 -9.0°
Enters shadow 16:42:38 11° 64° (ENE) 1,742 5.6 -9.6°
